Regional Weather Roundup
Issued by NWS

Current Version | Previous Version | Text Only | Print | Product List | Glossary On
Versions: 1 2 3 4 5 6 7 8 9 10 11 12 13 14 15 16 17 18 19 20 21 22 23 24 25 26 27
000
ASUS42 KTBW 301217
RWRFL
FLORIDA REGIONAL WEATHER ROUNDUP
NATIONAL WEATHER SERVICE TAMPA BAY RUSKIN FL
800 AM EDT THU MAR 30 2017

NOTE: "FAIR" INDICATES FEW OR NO CLOUDS BELOW 12,000 FEET WITH NO
SIGNIFICANT WEATHER AND/OR OBSTRUCTIONS TO VISIBILITY.

FLZ001>010-012>015-112-114-115-301300-
PANHANDLE FLORIDA

CITY           SKY/WX    TMP DP  RH WIND       PRES   REMARKS
PENSACOLA      PTCLDY    71  67  87 SW3       29.94R
PENSACOLA NAS  CLOUDY    71  68  90 S5        29.94R
MILTON NAS     FOG       60  60 100 NE3       29.95  VSB 3/4
CRESTVIEW      FOG       57  56  96 CALM      29.98R VSB<1/4
DUKE FIELD     FOG       55  55 100 CALM      29.96R VSB 1/2
VALPARAISO     MOCLDY    68  66  94 CALM      29.96R
MARY ESTHER    CLOUDY    66  64  93 N3        29.94R
TRI COUNTY     FAIR      55  55 100 CALM      29.98R
PANAMA CITY    FAIR      54  53  97 CALM      29.95R
TYNDALL AFB    CLEAR     65  63  94 SE6       29.96R
APALACHICOLA   CLOUDY    70  65  84 S8        29.96R

STATION/POSITION SKY/WX   TEMP    WIND        PRES    WAVE   SWELL
                          AIR SEA DIR/SP/G            HT/PER HT/PER
                          (F)     (DEG/KT/KT) (MB)    (FT/S) (FT/S)
30.1N   87.6W              71 71  150/  4/  6 1013.4R   4/ 6   3/ 6
29.2N   88.2W              74 73  150/  8/ 10 1012.8R   4/ 6   3/ 6
28.8N   86.0W              73 72              1013.6R   3/ 4
PANAMA CITY BEAC           70 73  160/  7/  9 1014.5R
TOWER C                    70     170/  9/ 10 1015.0R
28.5N   84.5W              71 71  150/ 10/ 12 1014.3R   2/ 3

$$
FLZ011-016>038-118-127-128-134-139-239-301300-
NORTH FLORIDA

CITY           SKY/WX    TMP DP  RH WIND       PRES   REMARKS
MARIANNA       CLEAR     56  55  97 CALM      29.97R
TALLAHASSEE    PTCLDY    55  52  89 CALM      29.98R
PERRY          CLEAR     59  57  92 CALM      29.99R
CROSS CITY     CLEAR     54  54 100 CALM      29.98S
LAKE CITY      FAIR      54  54 100 CALM      29.99R
GAINESVILLE    CLEAR     56  52  86 W3        29.99S
WILLISTON      CLEAR     57  55  94 CALM      29.99S
PALATKA        FAIR      64  64 100 S6        30.00R
MAYPORT NAS    MOCLDY    69  65  86 S5        30.00R
JACKSONVILLE   PTCLDY    63  63 100 SE3       29.99R
JAX NAS        PTCLDY    70  61  73 CALM      30.00R
FERNANDINA BEA FAIR      72  66  83 SE6       29.99R
ST AUGUSTINE   CLEAR     67  62  84 S7        30.01R
PALM COAST     CLEAR     61  61 100 CALM      30.01R

STATION/POSITION SKY/WX   TEMP    WIND        PRES    WAVE   SWELL
                          AIR SEA DIR/SP/G            HT/PER HT/PER
                          (F)     (DEG/KT/KT) (MB)    (FT/S) (FT/S)
SHELL POINT      NOT AVBL
KEATON BEACH               62     100/  5/  5 1014.8R
CEDAR KEY                  74     100/  4/  4 1015.3R
FERNANDINA                 69 71  110/  3/  6 1016.5R
30.7N   81.3W                 68                N/A     3/10   2/11
MAYPORT                    69 69  160/  3/  5 1016.3R
31.4N   80.9W              65 65   60/  6/  8 1016.0R   3/10   3/10
ST AUGUSTINE               69 67  160/ 11/ 11 1016.7R

$$
FLZ040-043>046-052-053-057-058-063-144-301300-
INTERIOR CENTRAL FLORIDA

CITY           SKY/WX    TMP DP  RH WIND       PRES   REMARKS
OCALA          CLEAR     57  52  82 CALM      30.00R
THE VILLAGES     N/A     63  61  94 CALM      29.90R
LEESBURG       CLEAR     68  64  87 SE5       30.00R
SANFORD        CLEAR     66  62  87 S6        30.01R
ORLANDO EXEC   CLEAR     65  62  90 SE5       30.00R
ORLANDO INTL   PTCLDY    66  63  90 SE6       30.01R
KISSIMMEE      CLEAR     68  65  90 SE6       30.01R
WINTER HAVEN   CLEAR     68  61  78 SE6       30.01R
LAKELAND       CLEAR     63  63 100 CALM      30.00R
BARTOW         CLEAR     59 N/A N/A CALM      30.00R
OKEECHOBEE     CLEAR    N/A N/A N/A CALM      30.01S HAZE

$$
FLZ041-047-054-059-064-141-147-301300-
EAST CENTRAL FLORIDA

CITY           SKY/WX    TMP DP  RH WIND       PRES   REMARKS
ORMOND BEACH   CLEAR     64  63  94 SE6         N/A
DAYTONA BEACH  PTCLDY    69  61  77 SE7       30.02R
DELAND         CLEAR     64  61  88 S5        30.00R
NEW SMYRNA BEA CLEAR     64  63  94 CALM      30.02R
JFK SPACE CTR  CLEAR     65  64  94 CALM      30.00R
TITUSVILLE     CLEAR     64  63  94 S6        30.01S
CAPE CANAVERAL CLEAR     68  65  89 S6        30.00S
PATRICK AFB    CLEAR     70  66  87 S7        30.00S
MELBOURNE      CLEAR     69  64  84 S6        30.02R
VERO BEACH     CLEAR     64  62  93 S3        30.01S
FT PIERCE      CLEAR     61  60  97 CALM      30.01S
STUART         PTCLDY    68  64  88 VRB3      30.02S

STATION/POSITION SKY/WX   TEMP    WIND        PRES    WAVE   SWELL
                          AIR SEA DIR/SP/G            HT/PER HT/PER
                          (F)     (DEG/KT/KT) (MB)    (FT/S) (FT/S)
TRIDENT PIER               72 74  170/  8/ 10 1017.2R
28.4N   80.5W                 73                N/A     2/11   2/11
27.5N   80.2W                 75                N/A     3/11   2/11

$$
FLZ050-056-061-142-242-148-248-149-249-151-251-155-255-
160-260-301300-
WEST CENTRAL FLORIDA

CITY           SKY/WX    TMP DP  RH WIND       PRES   REMARKS
CRYSTAL RIVER  FAIR      55  54  94 CALM      30.00R
INVERNESS      FAIR      55  55 100 CALM      30.00R
BROOKSVILLE    CLEAR     60  60 100 CALM      30.00R FOG
CLEARWATER AIR FAIR      64  64 100 CALM      29.98R
ST PETE CLEARW CLEAR     65  64  97 CALM      29.98R FOG
TAMPA INTL     CLEAR     71  64  78 SE3       29.99R
TAMPA EXEC     FOG       61  59  94 CALM      30.00R VSB 1/2
PLANT CITY     CLEAR     63  63 100 CALM      30.02R FOG
MACDILL AFB    CLEAR     64  64  99 CALM      29.98R
PETER O KNIGHT CLEAR     68  68 100 CALM      29.99R
ST PETERSBURG  CLEAR     70  65  84 S3        29.97R
SARASOTA       CLEAR     63  60  90 E5        29.97R
VENICE         FAIR      64  63  94 CALM      29.99R

STATION/POSITION SKY/WX   TEMP    WIND        PRES    WAVE   SWELL
                          AIR SEA DIR/SP/G            HT/PER HT/PER
                          (F)     (DEG/KT/KT) (MB)    (FT/S) (FT/S)
27.3N   84.2W                 73                N/A     2/ 6
CLEARWATER BEACH           71 72  150/  3/  3 1015.4R
MIDDLE TAMPA BAY           70     170/  5/  5 1015.6R
VENICE                     68 73   90/  6/  6 1015.2R

$$
FLZ066-069-070-075>078-162-262-165-265-301300-
SOUTHWEST FLORIDA AND KEYS

CITY           SKY/WX    TMP DP  RH WIND       PRES   REMARKS
PUNTA GORDA    CLEAR     64  62  93 SE6       30.01R
FT MYERS       CLEAR     69  65  86 S6        29.99R
SOUTHWEST INTL CLEAR     66  62  87 SE7       30.00R
NAPLES         CLEAR     67  64  90 SE6       30.00R
IMMOKALEE      FAIR      63  61  94 CALM      30.01R
MARATHON       CLEAR     77  66  68 E5        30.00R
KEY WEST NAS   PTCLDY    75  63  66 SE12      30.00R
KEY WEST INTL  PTCLDY    76  65  68 SE12      30.00R

STATION/POSITION SKY/WX   TEMP    WIND        PRES    WAVE   SWELL
                          AIR SEA DIR/SP/G            HT/PER HT/PER
                          (F)     (DEG/KT/KT) (MB)    (FT/S) (FT/S)
NAPLES                        75              1015.9R
26.0N   85.6W              77     130/ 19/ 23 1012.3S   4/ 4
DRY TORTUGAS               76     140/ 15/ 16 1015.6R
SAND KEY                   76     150/ 15/ 17 1016.3R
LONG KEY                   76 77  140/ 10/ 12 1016.1S
MOLASSES REEF              75 78  130/ 15/ 17 1017.0R

$$
FLZ067-068-071>074-168-172>174-301300-
SOUTHEAST FLORIDA

CITY           SKY/WX    TMP DP  RH WIND       PRES   REMARKS
W PALM BEACH   PTCLDY    66  64  93 S3        30.02S
BOCA RATON     PTCLDY    68  66  94 CALM      30.02R
FT LAUDER-EXEC PTCLDY    69  64  84 CALM      30.02R
FT LAUDERDALE  PTCLDY    73  62  68 SE8       30.01R
POMPANO BEACH  CLEAR     75  60  59 SE14      30.02R
PEMBROKE PINES CLEAR     68  64  87 SE3       30.03S
OPA LOCKA      CLEAR    N/A N/A N/A CALM      30.03R
MIAMI          PTCLDY    74  64  69 E7        30.02S
WEST KENDALL   CLEAR     66  61  84 CALM      30.02S
HOMESTEAD      CLOUDY    73  65  77 SE7       30.02R

STATION/POSITION SKY/WX   TEMP    WIND        PRES    WAVE   SWELL
                          AIR SEA DIR/SP/G            HT/PER HT/PER
                          (F)     (DEG/KT/KT) (MB)    (FT/S) (FT/S)
PORT EVERGLADES            75     130/  7/ 12 1016.6R
LAKE WORTH                        190/  4/  7   N/A
FOWEY ROCKS                75 77  120/ 17/ 20 1017.1R
SETTLEMENT POINT           73     130/  7/  8 1017.1R

$$





USA.gov is the U.S. government's official web portal to all federal, state and local government web resources and services.